Home > Weather > Sunnyvale > Past weeks

Flag for USA Past Weather in Sunnyvale, California, USA — Yesterday and Last 2 Weeks

Now
66 °F

Sunny.


Feels Like: 66 °F
Forecast: 57 / 81 °F
Wind: 10 mph from North

Location: Moffett Field

Current Time: Jun 29, 2016 at 1:00:49 PM

Latest Report: Jun 29, 2016 at 11:56 AM


Visibility: 10 mi

Pressure: 30.01 "Hg

Humidity: 63%

Dew Point: 53 °F

Location of SunnyvaleLocation

Past Weather in Sunnyvale — Graph

°F

Sunnyvale Temperature Yesterday

Maximum temperature yesterday: 78 °F (at 1:56 PM)
Minimum temperature yesterday: 59 °F (at 6:56 AM)
Average temperature yesterday: 66 °F

High & Low Weather Summary for the Past Weeks

 TemperatureHumidityPressure
High87 °F (Jun 19, 3:56 PM)90% (Jun 24, 6:56 AM)30.21 "Hg (Jun 24, 6:56 AM)
Low54 °F (Jun 15, 2:56 AM)23% (Jun 19, 1:56 PM)29.91 "Hg (Jun 25, 5:56 PM)
Average67 °F60%30.04 "Hg
* Reported Jun 14 11:56 AM — Jun 29 10:56 AM, Sunnyvale, Weather by CustomWeather, © 2016

Note: Actual official high and low records may vary slightly from our data, if they occured in-between our weather recording intervals... More about our weather records

Advertising

Sunnyvale Weather History for the Previous 24 Hours

Scroll right to see more
 ConditionsComfort  
Time TempWeatherWind HumidityBarometerVisibility
10:56 AM
Wed, Jun 29
65 °FScattered clouds.9 mph66%30.02 "Hg10 mi
10:03 AM64 °FPartly sunny.7 mph68%30.01 "Hg10 mi
9:56 AM62 °FScattered clouds.5 mph73%30.02 "Hg10 mi
8:56 AM60 °FOvercast.7 mph75%30.01 "Hg10 mi
7:56 AM59 °FOvercast.No wind81%30.00 "Hg10 mi
6:56 AM58 °FLow clouds.5 mph84%29.98 "Hg9 mi
5:56 AM57 °FLow clouds.5 mph87%29.97 "Hg10 mi
4:56 AM57 °FPassing clouds.3 mph83%29.96 "Hg10 mi
3:56 AM57 °FPassing clouds.6 mph87%29.95 "Hg9 mi
2:56 AM58 °FClear.No wind81%29.95 "Hg10 mi
1:56 AM60 °FClear.No wind78%29.95 "Hg10 mi
12:56 AM61 °FClear.No wind78%29.96 "Hg10 mi
11:56 PM
Tue, Jun 28
61 °FClear.3 mph75%29.97 "Hg10 mi
10:56 PM61 °FClear.5 mph75%29.97 "Hg10 mi
9:56 PM61 °FClear.8 mph78%29.97 "Hg10 mi
8:56 PM63 °FSunny.7 mph73%29.97 "Hg10 mi
7:56 PM65 °FSunny.10 mph68%29.96 "Hg10 mi
6:56 PM68 °FSunny.14 mph63%29.95 "Hg10 mi
5:56 PM70 °FSunny.14 mph61%29.95 "Hg10 mi
4:56 PM73 °FSunny.13 mph55%29.96 "Hg10 mi
3:56 PM75 °FSunny.12 mph48%29.96 "Hg10 mi
2:56 PM77 °FSunny.12 mph45%29.98 "Hg10 mi
1:56 PM78 °FSunny.13 mph46%29.98 "Hg10 mi
Weather by CustomWeather, © 2016

See weather overviewHow to use our weather pages